Weather History for Lexington, KY

Change the Weather History Date:

Saturday, February 22, 2014

  Actual Average Record
Temperature  
Mean Temperature 48 °F 39 °F  
Max Temperature 62 °F 48 °F 70 °F (1922)
Min Temperature 34 °F 30 °F -7 °F (1963)
Degree Days  
Heating Degree Days 17 26  
Month to date heating degree days 699 636  
Since 1 July heating degree days 3633 3419  
Cooling Degree Days 0 0  
Month to date cooling degree days 0 0  
Year to date cooling degree days 0 0  
Moisture  
Dew Point 22 °F    
Average Humidity 37    
Maximum Humidity 52    
Minimum Humidity 21    
Precipitation  
Precipitation 0.00 in 0.11 in 1.40 in (1994)
Month to date precipitation 4.62 2.49  
Year to date precipitation 6.93 5.69  
Snow  
Snow 0.00 in 0.10 in 1.80 in (2003)
Month to date snowfall 8.3 3.9  
Since 1 July snowfall 18.9 10.6  
Snow Depth 0.00 in    
Sea Level Pressure  
Sea Level Pressure 30.03 in    
Wind  
Wind Speed 10 mph (SSW)    
Max Wind Speed 20 mph    
Max Gust Speed 24 mph    
Visibility 10 miles    
Events      
T = Trace of Precipitation, MM = Missing Value Source: NWS Daily Summary

Daily Weather History Graph

Daily Weather History Graph

Search for Another Location

Airport:

Trip Planner

Search our weather history database for the weather conditions in past years. The results will help you decide how hot, cold, wet, or windy it might be!

Date:

Astronomy

Feb. 22, 2014 Rise Set
Actual Time 7:19 AM EST 6:24 PM EST
Civil Twilight 6:53 AM EST 6:51 PM EST
Nautical Twilight 6:22 AM EST 7:21 PM EST
Astronomical Twilight 5:51 AM EST 7:52 PM EST
Moon 1:11 AM EST (2/22) 11:37 AM EST (2/22)
Length of Visible Light 11h 58m
Length of Day
11h 04m
Waning Gibbous, 50% of the Moon is Illuminated
Feb 22
Waning Gibbous
Feb 22
Last Quarter
Mar 1
New
Mar 8
First Quarter
Mar 16
Full

Hourly Weather History & Observations

Time (EST) Temp. Windchill Dew Point Humidity Pressure Visibility Wind Dir Wind Speed Gust Speed Precip Events Conditions
12:54 AM 37.0 °F 29.8 °F 19.9 °F 50% 30.05 in 10.0 mi South 10.4 mph - N/A   Clear
1:54 AM 37.0 °F 30.4 °F 21.0 °F 52% 30.04 in 10.0 mi South 9.2 mph - N/A   Clear
2:54 AM 37.9 °F 30.5 °F 19.0 °F 47% 30.04 in 10.0 mi South 11.5 mph - N/A   Clear
3:54 AM 37.9 °F 30.0 °F 19.0 °F 47% 30.02 in 10.0 mi South 12.7 mph - N/A   Clear
4:54 AM 39.0 °F 31.8 °F 19.0 °F 45% 30.03 in 10.0 mi SSW 11.5 mph - N/A   Clear
5:54 AM 39.0 °F 32.8 °F 19.0 °F 45% 30.06 in 10.0 mi SW 9.2 mph - N/A   Clear
6:54 AM 37.9 °F - 18.0 °F 45% 30.10 in 10.0 mi Calm Calm - N/A   Clear
7:54 AM 36.0 °F 30.3 °F 19.9 °F 52% 30.11 in 10.0 mi South 6.9 mph - N/A   Clear
8:54 AM 43.0 °F 37.7 °F 21.9 °F 43% 30.12 in 10.0 mi SSW 9.2 mph - N/A   Clear
9:54 AM 48.0 °F - 23.0 °F 37% 30.13 in 10.0 mi SW 11.5 mph - N/A   Clear
10:54 AM 51.1 °F - 23.0 °F 33% 30.13 in 10.0 mi SW 13.8 mph 19.6 mph N/A   Clear
11:54 AM 55.0 °F - 25.0 °F 31% 30.10 in 10.0 mi SSW 11.5 mph - N/A   Clear
12:54 PM 57.9 °F - 24.1 °F 27% 30.07 in 10.0 mi WSW 11.5 mph - N/A   Clear
1:54 PM 60.1 °F - 24.1 °F 25% 30.03 in 10.0 mi SSW 12.7 mph - N/A   Clear
2:54 PM 61.0 °F - 23.0 °F 23% 30.01 in 10.0 mi SW 15.0 mph 23.0 mph N/A   Clear
3:54 PM 62.1 °F - 23.0 °F 22% 30.00 in 10.0 mi SW 13.8 mph 20.7 mph N/A   Clear
4:54 PM 61.0 °F - 21.9 °F 22% 29.98 in 10.0 mi SW 11.5 mph - N/A   Clear
5:54 PM 57.0 °F - 24.1 °F 28% 29.97 in 10.0 mi SW 6.9 mph - N/A   Clear
6:54 PM 57.0 °F - 21.0 °F 25% 29.96 in 10.0 mi South 5.8 mph - N/A   Clear
7:54 PM 54.0 °F - 21.9 °F 29% 29.96 in 10.0 mi South 5.8 mph - N/A   Clear
8:54 PM 51.1 °F - 25.0 °F 36% 29.96 in 10.0 mi SSW 5.8 mph - N/A   Clear
9:54 PM 46.9 °F - 25.0 °F 42% 29.96 in 10.0 mi South 8.1 mph - N/A   Clear
10:54 PM 48.9 °F - 23.0 °F 36% 29.96 in 10.0 mi South 8.1 mph - N/A   Clear
11:54 PM 50.0 °F - 21.0 °F 32% 29.96 in 10.0 mi South 6.9 mph - N/A   Clear